CAPE
200 264 609 404 1015 1330 986 976 1289 1285 1221 1203 1172 1179 1263 1486 1762 1702 1484 1322 1743 1909 2014 2679 2207 2293 2452 2474 2516 2593 2392 2160 1737 2736 2408 2487 1899 2390 1678 850 1120 1752 2584
222 344 1074 760 781 872 789 992 1367 1562 1313 1192 1460 1419 1482 1621 1723 1583 1618 1434 1375 1755 1889 2071 2702 1927 1962 2073 2428 1781 2070 2209 1816 2375 2546 2629 2274 2129 1861 2602 507 828 1312
213 407 819 1519 1671 1607 1171 863 1638 1681 1832 1610 1779 1734 1613 1679 1697 1498 1442 1474 1542 1499 1823 1889 2044 2786 2169 1917 1932 2058 1927 1957 1896 1647 1708 1074 1265 1995 2276 2672 2897 2842 2760
238 336 718 1551 1804 1742 1410 1073 1503 1699 2127 2092 1925 1777 1632 1556 1548 1509 1454 1536 1587 1611 1647 1871 1956 2022 2794 2163 1883 1831 1829 1790 1804 1151 490 624 801 1809 1791 1905 1996 1968 1876
269 369 968 1444 1443 1220 867 800 1039 1308 1227 1487 1697 1622 1538 1499 1461 1442 1595 1781 1947 2209 1783 1745 1952 2394 2247 2794 2124 1937 1866 2055 1894 1154 850 533 560 1586 1915 1898 1820 2156 2493
334 519 748 1434 1215 1250 1212 1011 1153 1139 1031 1189 1354 1465 1507 1554 1796 1890 1856 1765 1796 1783 1821 2077 2051 2065 2486 2666 2495 2076 2147 2480 1562 801 940 802 698 1520 2309 2753 2652 2846 2617
363 644 645 1384 1397 1318 1275 1257 1324 1311 1293 1353 1592 1697 1773 1836 1877 1859 1809 1800 1727 1688 1542 1780 1652 1529 1964 1920 2234 2289 1247 2109 1589 1165 1335 956 1427 2463 3074 2902 2978 2708 2872
390 571 975 1383 1522 1422 1328 1400 1514 1300 1415 1432 1356 1453 1443 1422 1626 1806 1546 1482 1433 1415 1425 1514 1307 1560 1547 1770 2036 1774 1631 1345 990 1072 1243 1175 1535 2724 2859 2903 2737 2787 2737
442 901 793 895 1325 1711 1516 1557 1260 1356 1256 1441 1413 1345 1407 1352 1469 1591 1571 1630 1373 1375 1243 1447 1427 1245 1344 1356 1397 1577 1645 1557 1233 1026 1289 1242 1679 2466 2512 2706 2830 2768 2604
356 619 723 676 908 801 964 1092 882 729 616 1099 1216 1310 1526 1449 1388 1495 1306 1392 1382 1308 1008 970 1406 1379 1417 1346 1338 1479 1166 1420 1312 1094 1067 898 1225 1954 2587 2198 2524 2701 2485
143 145 350 425 468 909 855 753 620 385 252 459 640 889 1037 628 1032 990 796 885 1286 1194 1140 1137 1501 908 1017 1320 1336 1085 1152 1129 802 677 835 659 266 837 1745 2241 2303 2687 2688
159 258 596 682 746 878 600 30 41 1 0 0 0 269 1006 840 898 801 837 1012 664 760 965 1043 1219 1273 785 856 699 933 696 1048 1033 938 675 621 668 728 890 1737 2055 2510 2379
276 327 391 491 739 1061 6 0 0 0 0 0 14 53 400 786 898 526 1115 644 377 678 764 626 848 567 638 630 635 662 758 1299 1268 1157 1129 580 344 468 584 1592 1664 2032 2345
584 974 830 705 586 708 594 100 1 2 4 21 6 58 711 921 545 516 580 669 1080 956 772 889 575 629 681 821 683 788 806 1075 1082 1083 1341 1011 1372 1241 1451 1956 1778 1745 2250
814 971 1090 1124 1215 906 813 695 268 304 310 140 234 557 693 522 417 472 1285 918 1141 860 688 789 786 629 807 826 695 658 621 709 805 874 947 1059 963 1234 1807 2462 2282 1905 2473
836 965 1089 1188 1576 1357 1031 936 265 210 229 481 284 206 663 487 457 744 650 808 365 768 684 502 741 643 625 529 506 505 289 313 636 794 733 967 661 604 743 1658 2629 2276 2430
902 959 1094 1237 1279 1336 1197 929 326 231 397 555 325 139 358 759 956 1178 346 595 452 541 796 799 466 739 767 592 495 519 326 371 376 723 1033 1242 1420 1425 1253 1872 2451 2226 2215
915 977 1180 1020 1033 1244 1050 1007 612 575 319 464 566 142 153 344 1106 1177 800 442 520 609 658 514 557 564 626 726 843 613 822 915 1157 1527 1680 1717 1676 1567 1958 1907 2350 1794 1452
983 1049 1214 1274 1107 1102 1085 829 540 567 743 615 487 364 221 308 668 1281 1024 433 936 400 704 741 856 1218 720 766 890 979 1087 1116 1080 1025 1370 1682 1543 1490 1534 1767 1454 1464 1525
1074 1190 1330 1336 1373 1268 1098 1048 681 756 822 867 796 498 350 471 601 1074 1018 1014 813 848 1028 960 1171 673 681 730 1081 864 1198 992 1083 1157 1190 1395 1445 1533 1327 1628 1674 1174 911
1325 1338 1429 1513 1527 1532 1175 1182 981 1060 1148 1063 990 886 722 674 657 869 887 789 1199 941 1076 1209 1196 903 742 1046 667 606 687 598 1060 1177 1175 1153 1391 1694 1120 1293 1642 1377 1164
1559 1609 1701 1721 1792 1763 1384 1286 1410 1438 1340 1415 765 930 272 858 1209 1229 981 866 980 1064 1329 1397 1382 780 450 1130 1090 996 605 711 578 439 508 1058 1187 1278 1405 1303 1557 1655 1469
1693 1766 1809 1997 1922 1838 1524 1466 1709 1763 1482 1698 1344 1194 1451 1437 1547 1438 1120 1210 772 943 818 1218 1093 429 323 901 1467 612 433 445 317 206 278 670 984 1013 1099 1196 1369 1598 1752
1818 1915 1945 2188 2172 1997 1814 1516 1727 1507 1178 1450 1153 1030 1064 1878 1574 1494 1040 1428 1462 622 885 1035 808 752 380 302 1085 993 840 701 265 264 674 450 508 490 821 949 835 1180 1756
1829 1960 2070 2304 2401 2221 2067 1944 1920 1922 1612 1232 1364 1596 1283 1484 1503 1420 1359 1269 1624 1458 754 1390 458 1159 658 232 943 1153 1038 849 380 303 772 724 502 727 735 694 892 991 1256
1859 1979 2093 2350 2541 2483 2415 2412 2239 1790 1802 1770 1620 1206 1254 1231 1552 1452 1619 1340 1505 1556 1284 1299 1057 994 544 799 668 1086 890 694 643 905 1122 895 778 851 815 749 952 1210 1325
CIN
-6 -20 -16 -20 -7 -3 -14 -17 -7 -9 -24 -30 -35 -35 -27 -20 -16 -7 -18 -17 -5 -1 -0 -0 -0 -1 -3 -2 -0 -0 -3 -16 -26 -0 -3 -0 -11 -3 -36 -82 -42 -7 -0
-18 -15 -1 -12 -11 -10 -24 -21 -6 -3 -17 -32 -15 -20 -19 -14 -10 -14 -8 -10 -18 -4 -2 -0 -0 -18 -26 -17 -2 -17 -4 -3 -29 -0 -0 -0 -0 -2 -17 -2 -116 -114 -64
-9 -11 -2 -0 -0 -3 -18 -34 -10 -1 -2 -7 -2 -4 -9 -11 -4 -3 -9 -4 -9 -18 -4 -6 -2 -0 -11 -18 -11 -8 -4 -5 -14 -27 -19 -7 -27 -8 -0 -0 -0 -0 -0
-5 -7 -1 -0 -0 -2 -16 -26 -12 -11 -0 -0 -0 -4 -7 -13 -6 -0 -0 -1 -3 -9 -16 -7 -5 -3 -0 -1 -10 -10 -10 -9 -12 -55 -24 -11 -35 -24 -16 -21 -17 -17 -29
-14 -3 -1 -1 -2 -13 -27 -29 -20 -15 -17 -2 -0 -3 -5 -4 -2 -0 -0 -0 -0 -0 -3 -7 -0 -0 -0 -0 -3 -11 -10 -0 -9 -19 -17 -34 -35 -41 -21 -23 -36 -14 -2
-10 -3 -13 -0 -12 -11 -15 -24 -11 -15 -22 -11 -7 -1 -0 -0 -0 -0 -0 -0 -0 -0 -1 -0 -0 -0 -0 -0 -0 -1 -0 -0 -32 -12 -15 -43 -10 -49 -10 -0 -1 -1 -4
-10 -2 -2 -0 -0 -1 -8 -5 -5 -6 -6 -3 -0 -0 -0 -0 -0 -0 -0 -0 -0 -0 -0 -0 -1 -2 -0 -3 -0 -0 -30 -4 -1 -2 -1 -19 -16 -6 -0 -0 -0 -0 -0
-1 -1 -1 -0 -1 -2 -1 -2 -0 -4 -1 -0 -2 -0 -0 -0 -0 -0 -0 -0 -0 -0 -0 -0 -5 -0 -0 -0 -0 -2 -5 -24 -17 -1 -1 -0 -50 -1 -0 -0 -0 -0 -0
-1 -1 -3 -0 -0 -0 -1 -0 -1 -1 -1 -0 -0 -0 -0 -0 -0 -0 -0 -1 -0 -0 -0 -0 -0 -1 -0 -0 -0 -1 -1 -8 -0 -1 -1 -1 -41 -9 -0 -0 -0 -0 -1
-3 -1 -1 -0 -0 -1 -1 -1 -1 -2 -6 -0 -0 -0 -0 -0 -0 -0 -1 -2 -0 -0 -2 -4 -0 -0 -0 -1 -2 -0 -2 -5 -2 -1 -2 -3 -61 -30 -2 -4 -0 -0 -0
-36 -21 -1 -1 -0 -1 -2 -0 -6 -15 -24 -14 -7 -0 -0 -1 -2 -4 -3 -8 -0 -0 -0 -1 -0 -8 -6 -3 -7 -19 -14 -1 -0 -0 -1 -62 -164 -103 -31 -3 -0 -0 -0
-45 -10 -8 -1 -3 -0 -5 -22 -56 -15 -6 -0 -0 -27 -0 -1 -1 -3 -8 -7 -12 -6 -3 -0 -0 -0 -20 -1 -9 -23 -9 -0 -0 -0 -1 -72 -110 -115 -98 -27 -4 -0 -1
-28 -12 -24 -11 -0 -4 -87 -0 -0 -0 -0 -0 -71 -49 -1 -1 -0 -0 -1 -12 -22 -6 -1 -4 -2 -2 -1 -1 -1 -2 -0 -0 -1 -0 -19 -92 -151 -140 -133 -43 -29 -4 -1
-2 -2 -1 -1 -1 -1 -11 -70 -13 -6 -3 -23 -60 -39 -1 -1 -1 -0 -20 -10 -1 -0 -1 -0 -1 -1 -0 -0 -1 -0 -1 -1 -1 -1 -13 -63 -67 -76 -60 -35 -31 -19 -1
-1 -2 -0 -1 -2 -2 -1 -3 -10 -5 -2 -4 -14 -3 -1 -0 -1 -0 -0 -6 -0 -1 -0 -1 -0 -0 -0 -0 -0 -1 -3 -1 -1 -1 -0 -48 -80 -77 -47 -16 -13 -15 -0
-1 -1 -0 -0 -0 -0 -0 -2 -24 -7 -4 -2 -0 -0 -0 -0 -0 -0 -17 -15 -4 -0 -1 -0 -1 -1 -1 -1 -0 -8 -28 -21 -14 -17 -5 -6 -72 -95 -94 -47 -4 -6 -0
-4 -0 -1 -1 -1 -1 -1 -4 -7 -1 -0 -1 -0 -1 -0 -0 -0 -0 -35 -18 -25 -0 -1 -0 -6 -0 -0 -1 -1 -4 -22 -23 -21 -21 -17 -1 -8 -49 -69 -44 -11 -9 -3
-4 -14 -10 -9 -2 -0 -0 -1 -4 -0 -13 -0 -0 -1 -3 -2 -0 -0 -2 -21 -3 -0 -0 -1 -0 -0 -0 -1 -1 -0 -6 -1 -1 -6 -0 -1 -0 -1 -46 -36 -12 -24 -31
-22 -25 -25 -21 -16 -8 -8 -4 -14 -1 -0 -0 -0 -1 -2 -1 -0 -0 -1 -3 -0 -0 -0 -0 -2 -1 -1 -2 -2 -1 -1 -1 -1 -1 -1 -1 -0 -7 -2 -38 -43 -46 -42
-41 -31 -27 -20 -18 -27 -20 -23 -17 -3 -1 -1 -0 -1 -4 -0 -0 -0 -0 -0 -3 -1 -0 -1 -0 -22 -1 -2 -1 -1 -1 -2 -1 -2 -1 -0 -1 -8 -6 -1 -12 -44 -87
-42 -40 -34 -28 -24 -18 -24 -12 -10 -4 -1 -10 -0 -15 -31 -14 -3 -0 -3 -1 -1 -6 -0 -0 -2 -7 -3 -9 -23 -2 -1 -16 -17 -3 -9 -5 -2 -3 -1 -4 -2 -1 -23
-34 -42 -45 -49 -36 -33 -35 -17 -1 -1 -1 -19 -55 -48 -86 -20 -0 -0 -0 -3 -1 -2 -0 -0 -2 -13 -24 -1 -2 -0 -1 -1 -18 -34 -31 -13 -9 -2 -2 -4 -1 -5 -9
-36 -47 -50 -54 -49 -54 -49 -28 -8 -3 -10 -1 -7 -3 -6 -10 -1 -1 -1 -0 -17 -9 -8 -1 -2 -19 -31 -5 -12 -16 -11 -1 -1 -38 -82 -41 -15 -15 -12 -11 -18 -14 -15
-31 -47 -60 -52 -58 -65 -63 -30 -21 -11 -21 -4 -10 -18 -2 -2 -3 -1 -12 -1 -0 -29 -1 -0 -5 -10 -23 -28 -5 -17 -20 -22 -5 -2 -17 -43 -39 -52 -19 -19 -41 -38 -18
-29 -40 -51 -67 -61 -50 -60 -44 -18 -19 -1 -6 -2 -1 -14 -3 -3 -0 -15 -5 -0 -0 -0 -0 -47 -2 -11 -36 -4 -1 -6 -1 -38 -26 -3 -1 -44 -36 -35 -40 -24 -25 -13
-51 -50 -58 -73 -82 -72 -53 -48 -37 -16 -10 -3 -8 -11 -8 -14 -1 -3 -1 -19 -3 -0 -3 -1 -13 -4 -29 -11 -16 -2 -3 -1 -1 -1 -1 -1 -0 -2 -6 -23 -18 -1 -7
Wind_Speed
29 29 30 29 28 27 28 30 31 31 31 30 29 29 28 28 27 27 22 21 21 20 21 20 19 19 18 18 16 17 16 16 14 13 15 14 14 14 15 17 21 17 15
27 25 26 27 28 28 28 29 30 30 30 29 28 28 27 26 25 24 24 23 21 20 21 18 17 18 17 16 16 13 9 12 12 13 14 14 14 12 11 11 13 16 16
23 22 23 24 26 27 27 27 29 28 28 27 27 27 26 25 23 23 22 22 21 21 20 17 14 14 15 15 15 12 8 6 9 10 15 10 11 11 10 11 13 14 14
21 21 20 20 21 25 27 26 27 27 27 26 26 25 24 23 22 21 20 20 20 18 18 17 13 10 12 12 13 10 8 6 7 11 7 8 10 10 10 11 12 12 13
21 19 16 17 19 20 22 24 24 23 25 25 24 24 23 22 21 20 19 18 18 17 17 17 15 11 11 13 13 11 11 9 8 17 7 6 9 9 9 10 12 12 9
23 21 17 16 17 16 17 19 21 21 23 24 23 22 21 20 19 19 18 17 17 17 17 16 15 14 15 15 15 13 12 8 22 8 8 7 7 8 9 8 9 10 10
23 19 19 18 16 15 15 15 16 19 22 22 23 21 20 19 18 17 17 17 17 17 17 17 17 18 18 16 16 6 5 21 22 9 9 7 6 6 8 9 10 11 12
23 20 20 19 19 16 16 15 9 13 24 22 22 21 20 18 17 17 17 16 17 16 16 14 18 19 19 18 19 20 18 19 21 5 13 8 7 7 8 9 11 12 13
21 19 22 19 19 15 13 10 4 14 20 23 22 21 20 18 18 17 17 17 17 17 17 16 19 20 19 19 20 20 19 21 21 19 19 23 8 8 9 10 10 11 11
19 20 20 15 17 14 8 9 5 18 21 23 23 22 20 19 18 17 18 18 18 17 18 18 18 19 20 20 20 20 20 20 21 20 23 7 10 17 21 19 12 12 11
19 20 18 20 18 14 9 6 9 13 21 22 22 22 21 20 17 16 18 18 18 18 18 18 18 19 20 20 20 19 19 18 17 21 22 9 13 18 20 19 18 16 16
20 19 17 17 17 13 9 13 10 7 18 28 27 23 22 20 19 19 17 19 17 18 18 19 19 19 20 20 17 18 20 18 18 21 20 10 18 19 19 19 18 18 17
20 18 18 18 19 15 13 11 10 14 19 25 29 26 23 21 20 19 19 18 18 18 17 19 19 20 20 20 20 19 20 20 19 21 7 16 20 20 19 19 19 19 18
20 19 18 19 20 19 17 15 15 20 21 24 27 25 23 21 20 19 19 18 18 18 18 19 19 19 20 21 20 20 21 21 20 20 15 19 21 21 19 19 19 19 19
20 18 18 18 18 17 17 16 16 20 22 23 24 23 22 21 20 20 18 18 17 18 18 19 19 18 19 21 21 20 21 21 21 21 20 16 19 19 19 19 19 19 19
20 19 18 18 17 16 17 16 19 19 20 22 23 22 21 21 17 19 21 18 19 18 19 19 19 19 20 20 20 21 21 21 21 21 21 18 17 18 19 19 20 20 20
20 18 18 18 18 18 17 15 18 19 18 19 21 22 22 21 18 18 10 8 22 20 20 20 20 20 20 19 19 20 21 20 21 21 21 21 17 15 18 19 19 19 20
21 19 18 18 18 17 17 16 18 16 17 18 18 20 20 22 20 16 8 22 24 22 20 20 18 19 20 20 19 20 21 21 20 20 21 21 20 20 15 19 19 19 20
20 19 18 17 17 16 17 18 17 17 16 16 16 16 17 21 22 18 18 17 19 18 15 8 11 11 19 17 20 20 21 21 21 21 22 22 21 21 20 14 18 19 20
19 18 17 16 16 16 16 16 16 15 14 15 14 15 14 19 23 21 20 19 18 14 15 12 10 12 18 17 21 21 21 21 21 22 22 22 22 20 20 20 17 19 19
19 18 18 16 15 16 15 14 15 14 11 10 8 8 12 19 25 25 22 21 18 22 18 18 11 7 18 17 19 21 21 21 22 22 23 23 23 21 20 19 21 21 17
20 20 19 19 18 17 15 13 13 12 12 12 15 14 14 16 20 26 25 24 23 21 19 20 16 14 22 17 19 19 18 8 19 22 24 24 25 23 22 22 22 21 21
21 21 21 20 18 17 16 13 11 12 12 11 12 10 11 13 14 13 5 5 8 22 23 19 17 14 19 22 19 15 16 10 23 15 20 21 26 25 25 24 24 22 19
20 21 21 19 18 19 18 16 14 12 11 10 9 8 9 9 11 10 6 3 4 4 11 20 24 19 14 25 20 20 21 22 21 19 14 17 22 25 25 25 25 22 18
18 19 19 19 18 18 17 18 16 14 12 10 9 9 7 6 6 5 9 5 4 4 3 24 27 24 18 19 23 17 15 12 11 20 20 14 19 22 23 24 25 19 15
17 18 17 17 17 17 15 15 15 14 11 9 8 7 7 7 6 5 5 7 6 2 6 18 25 21 19 16 22 19 18 16 17 18 19 16 17 16 17 19 20 19 15
Wind_Direction
122 118 126 118 111 109 112 115 115 119 121 122 119 119 119 119 111 96 66 58 59 52 54 55 50 52 53 52 52 56 55 55 53 45 51 47 44 44 46 51 61 46 39
113 107 110 115 118 113 115 116 118 118 120 118 119 126 126 124 116 108 92 82 67 62 63 48 46 50 50 49 50 45 32 43 47 49 50 48 42 37 31 18 35 43 42
108 104 105 106 112 115 116 116 118 115 120 119 122 128 128 128 123 117 109 103 86 84 70 49 33 42 43 45 51 40 21 6 32 40 68 33 31 31 23 25 31 34 32
107 107 100 101 104 111 120 118 117 117 122 124 123 126 128 129 130 123 115 115 109 89 80 68 36 2 34 34 47 28 22 358 9 56 347 17 36 28 22 25 26 24 24
109 107 97 99 102 106 111 117 117 117 122 123 125 129 131 133 131 128 125 120 119 103 100 100 73 14 35 55 56 50 47 33 26 203 314 328 31 26 23 22 33 24 350
113 111 105 101 103 103 105 109 113 114 123 129 134 133 135 139 134 130 128 119 125 118 119 107 86 79 94 96 92 75 70 354 166 310 312 295 326 33 23 338 343 341 340
116 105 112 111 105 105 104 104 107 114 129 134 146 145 142 143 135 133 124 117 109 118 117 135 119 141 139 111 108 5 322 181 205 303 301 334 349 5 347 349 6 3 13
117 109 115 116 118 113 113 109 89 102 156 148 155 157 156 154 148 140 123 120 124 108 105 79 137 155 152 138 142 149 141 145 160 209 267 43 24 345 9 13 25 43 48
111 105 122 115 118 110 109 96 343 258 232 208 191 179 175 168 164 150 142 129 126 122 122 112 150 163 148 144 151 155 143 156 172 153 148 176 55 331 325 343 28 63 44
111 116 118 108 117 112 85 85 23 247 234 214 200 193 190 183 174 161 157 135 153 143 139 132 129 150 142 141 138 142 144 157 181 160 173 79 76 130 201 169 103 100 77
118 120 118 126 122 108 85 16 329 293 262 244 231 212 196 189 149 131 161 151 168 158 149 151 128 138 156 166 164 147 147 145 152 164 161 88 110 146 178 182 175 155 151
123 120 116 118 125 108 82 96 98 72 218 235 221 222 209 211 216 214 206 177 169 168 145 157 145 150 169 156 132 150 162 160 156 177 158 111 152 172 184 182 181 174 172
123 117 121 124 132 114 107 101 102 138 173 195 200 211 207 202 185 166 193 172 183 171 151 156 142 161 171 214 223 193 196 172 192 186 1 134 164 177 181 182 185 183 183
123 121 118 127 133 126 123 108 118 146 165 179 189 200 197 193 184 182 185 207 203 195 180 202 171 193 201 201 213 200 183 180 184 192 111 146 175 179 182 188 185 185 186
131 125 123 125 124 118 123 109 112 150 171 172 174 177 182 189 186 194 186 195 221 198 190 205 183 162 173 204 202 201 195 194 200 193 196 139 172 188 190 191 188 183 188
132 126 126 128 121 115 121 112 132 148 167 188 184 188 179 191 167 207 242 224 241 246 204 212 187 181 180 194 194 198 201 204 191 194 196 178 166 183 197 197 188 184 190
131 125 126 131 131 134 136 110 128 161 169 180 191 193 194 191 175 198 43 94 246 245 223 191 201 190 196 195 197 198 194 192 197 193 200 204 174 169 186 187 177 178 187
139 129 130 131 133 133 134 124 153 136 169 176 163 178 180 202 207 182 89 249 232 240 210 182 157 161 190 200 202 199 203 207 193 199 208 210 202 208 141 173 172 174 183
140 136 137 130 134 132 137 150 152 162 156 156 155 161 164 193 207 198 225 258 246 257 283 84 335 323 178 233 212 216 218 219 210 201 207 216 205 208 212 131 165 178 182
142 139 135 134 134 135 133 140 146 149 142 150 143 149 150 182 212 219 229 226 257 287 287 323 3 116 182 171 246 225 236 223 219 214 210 205 201 192 192 194 160 179 177
145 146 146 136 132 134 131 128 134 138 121 106 86 109 140 187 216 230 229 226 184 240 280 283 339 65 178 183 216 208 215 216 222 218 219 212 209 193 188 182 199 204 158
151 153 151 150 144 142 138 132 129 127 124 123 152 157 156 174 188 220 227 238 228 205 284 282 300 313 231 173 200 228 215 138 280 226 216 208 223 210 201 191 201 198 201
149 154 156 155 151 151 146 133 117 123 140 124 127 130 139 158 161 160 112 26 257 263 221 291 296 309 280 241 283 308 318 2 290 325 282 212 225 216 214 215 209 200 184
149 150 153 154 151 157 157 151 146 136 129 111 99 101 129 124 148 146 135 79 31 93 331 299 275 290 305 249 281 287 278 291 321 296 312 284 259 234 229 224 218 192 174
135 145 148 149 150 150 152 163 157 163 150 135 103 68 91 74 101 106 153 147 134 130 121 282 268 276 293 284 270 314 324 357 30 267 265 301 271 255 247 238 234 176 158
118 134 138 144 149 147 146 152 160 161 145 124 82 88 67 85 64 97 128 165 159 119 146 199 265 280 290 307 281 306 307 318 319 283 263 281 274 281 271 268 260 261 145